Location: ??
(35.4032°N, 139.3073°E)
Time: 07:19:59
(UTC+00:00)

Cosmos 1515 Rocket - Visible Passes

Search period start: 13 July 2025 00:00
Search period end: 23 July 2025 00:00
Orbit: 599 x 624 km, 82.5° (Epoch: 12 July)

Date Brightness Start Highest point End Pass type
(mag) Time Alt. Az. Time Alt. Az. Time Alt. Az.
15 Jul 6.6 18:25:29 10° NE 18:27:54 15° ENE 18:30:18 10° ESE visible
16 Jul 5.9 18:39:30 10° NNE 18:43:08 26° ENE 18:46:44 10° SE visible
17 Jul 4.6 18:54:06 10° N 18:58:17 48° E 19:02:26 10° SSE visible
18 Jul 3.5 19:09:02 10° N 19:13:21 86° W 19:17:38 10° S visible
19 Jul 6.6 17:48:40 10° NE 17:50:25 12° ENE 17:52:09 10° E visible
20 Jul 6.0 18:02:18 10° NNE 18:05:41 22° ENE 18:09:01 10° SE visible
21 Jul 4.9 18:16:47 10° N 18:20:50 40° E 18:24:53 10° SSE visible
22 Jul 3.6 18:31:37 10° N 18:35:56 78° E 18:40:14 10° S visible
